Location: The Jewett Observatory
(46.7288°N, 117.1525°W)
Time: 06:36:01
(UTC-08:00)

Meteor 1-28 Rocket - Visible Passes

Search period start: 23 January 2017 00:00
Search period end: 02 February 2017 00:00
Orbit: 505 x 527 km, 97.2° (Epoch: 22 January)

Date Brightness Start Highest point End Pass type
(mag) Time Alt. Az. Time Alt. Az. Time Alt. Az.
23 Jan 4.3 04:47:55 10° SE 04:51:28 43° ENE 04:52:08 38° NE visible
23 Jan 4.8 06:23:32 10° SW 06:25:47 15° W 06:27:09 13° WNW visible
23 Jan 3.5 17:50:27 10° NNE 17:54:02 44° E 17:57:36 10° S visible
23 Jan 6.1 19:25:29 10° NNW 19:27:48 16° WNW 19:30:07 10° WSW visible
24 Jan 5.0 04:33:35 10° SE 04:36:52 30° ENE 04:37:25 28° NE visible
24 Jan 4.4 06:08:03 10° SW 06:11:00 22° W 06:12:26 18° WNW visible
24 Jan 4.0 17:35:59 10° NNE 17:39:17 30° E 17:42:35 10° SSE visible
24 Jan 5.6 19:10:19 10° NNW 19:13:15 22° WNW 19:16:10 10° WSW visible
25 Jan 5.6 04:19:25 10° ESE 04:22:17 21° ENE 04:22:42 21° ENE visible
25 Jan 3.9 05:52:52 10° SSW 05:56:13 31° W 05:57:43 23° NW visible
25 Jan 4.5 17:21:38 10° NE 17:24:31 21° E 17:27:22 10° SE visible
25 Jan 5.0 18:55:21 10° N 18:58:40 31° WNW 19:01:58 10° SW visible
26 Jan 6.0 04:05:30 10° E 04:07:44 15° ENE 04:08:00 15° ENE visible
26 Jan 3.4 05:37:52 10° S 05:41:28 46° W 05:43:01 28° NW visible
26 Jan 4.2 18:40:28 10° N 18:44:02 45° WNW 18:47:37 10° SW visible
27 Jan 6.5 03:52:07 10° ENE 03:53:12 11° ENE 03:53:18 11° ENE visible
27 Jan 3.0 05:23:03 10° S 05:26:45 70° WSW 05:28:20 33° NNW visible
27 Jan 3.5 18:25:41 10° N 18:29:24 68° WNW 18:33:06 10° SSW visible
28 Jan 3.2 05:08:21 10° SSE 05:12:04 78° ENE 05:13:39 33° N visible
28 Jan 3.0 18:10:58 10° NNE 18:14:43 81° ESE 18:18:27 10° S visible
29 Jan 3.9 04:53:48 10° SSE 04:57:25 51° ENE 04:58:59 29° NNE visible
29 Jan 5.0 06:30:05 10° WSW 06:31:49 13° W 06:33:34 10° WNW visible
29 Jan 3.3 17:56:20 10° NNE 18:00:01 53° E 18:03:41 10° S visible
29 Jan 6.3 19:31:45 10° NNW 19:33:42 14° WNW 19:35:39 10° W visible
30 Jan 4.7 04:39:23 10° SE 04:42:47 35° ENE 04:44:21 24° NNE visible
30 Jan 4.6 06:14:21 10° SW 06:17:00 18° W 06:19:23 11° NW visible
30 Jan 3.8 17:41:48 10° NNE 17:45:17 35° E 17:48:44 10° SSE visible
30 Jan 5.9 19:16:27 10° NNW 19:19:09 19° WNW 19:21:50 10° WSW visible
31 Jan 5.4 04:25:08 10° ESE 04:28:11 25° ENE 04:29:45 19° NNE visible
31 Jan 4.1 05:59:03 10° SSW 06:02:13 26° W 06:04:46 13° NW visible
31 Jan 4.3 17:27:23 10° NE 17:30:30 25° E 17:33:37 10° SSE visible
31 Jan 5.3 19:01:24 10° N 19:04:34 26° WNW 19:07:44 10° SW visible
01 Feb 5.9 04:11:03 10° ESE 04:13:37 18° ENE 04:15:08 14° NE visible
01 Feb 3.6 05:43:58 10° SSW 05:47:27 38° W 05:50:10 15° NNW visible
01 Feb 4.6 18:46:29 10° N 18:49:57 37° WNW 18:53:27 10° SW visible
